Skip Page Navigation
NASA JPL Caltech
NASA Logo - Jet Propulsion Laboratory + View the NASA Portal
+ Near-Earth Object (NEO) Program
Search JPL
JPL Home Earth Solar System Stars & Galaxies Technology
JPL Solar System Dynamics
BODIES ORBITS EPHEMERIDES TOOLS PHYSICAL DATA DISCOVERY FAQ SITE MAP
JPL Small-Body Database Browser
Search: [ help ]  
308306 Dainere (2005 KL8)
Classification: Mars-crossing Asteroid          SPK-ID: 2308306
Ephemeris | Orbit Diagram | Orbital Elements | Physical Parameters | Discovery Circumstances | Close-Approach Data ]

[ show orbit diagram ]
Orbital Elements at Epoch 2457000.5 (2014-Dec-09.0) TDB
Reference: JPL 3 (heliocentric ecliptic J2000)
 Element Value Uncertainty (1-sigma)   Units 
e .5530841727624826 1.6275e-07  
a 3.144874804910833 1.2764e-07 AU
q 1.405494324995151 4.6547e-07 AU
i 23.07211104298464 1.7024e-05 deg
node 85.01029985536753 3.0134e-05 deg
peri 250.1488601857826 3.4928e-05 deg
M 239.2697237265802 4.078e-05 deg
tp 2457683.651714063843
(2016-Oct-22.15171406)
0.00027193 JED
period 2037.058347369398
5.58
0.00012401
3.395e-07
d
yr
n .1767254239255808 1.0759e-08 deg/d
Q 4.884255284826515 1.9823e-07 AU
  Orbit Determination Parameters
   # obs. used (total)      114  
   data-arc span      4670 days (12.79 yr)  
   first obs. used      1999-03-14  
   last obs. used      2011-12-26  
   planetary ephem.      DE431  
   SB-pert. ephem.      SB431-BIG16  
   condition code      0  
   fit RMS      .4931  
   data source      ORB  
   producer      Otto Matic  
   solution date      2014-Jun-12 13:29:08  

Additional Information
 Earth MOID = .556324 AU 
 T_jup = 2.846 
[ show covariance matrix ]

Ephemeris | Orbit Diagram | Orbital Elements | Physical Parameters | Discovery Circumstances | Close-Approach Data ]

Physical Parameter Table
Parameter Symbol Value Units Sigma Reference Notes
absolute magnitude H 16.2 mag n/a MPO264772  

308306 Dainere           Discovered 2005 May 19 by the Siding Spring Survey at Siding Spring.
Named for Dainere Monique Anthoney (b. 1998), an inspiring Australian teenager, author and blogger who raises awareness and funds for brain tumour research.
NOTE: some special characters may not display properly (any characters within {} are an attempt to place the proper accent above a character)
Reference: 20120831/MPCPages.arcLast Updated: 2012-09-04

[ show close-approach data ]
Alternate Designations
 2005 KL8 = 1999 FX83 
Ephemeris | Orbit Diagram | Orbital Elements | Physical Parameters | Discovery Circumstances | Close-Approach Data ]
ABOUT SSD CREDITS/AWARDS PRIVACY/COPYRIGHT GLOSSARY LINKS
FirstGov 2014-Oct-23 05:13 UT
(server date/time)  
NASA Home Page
Site Manager:   Donald K. Yeomans
Webmaster  Alan B. Chamberlin